Location: Dallet
(45.7704°N, 3.2391°E)
Time: 15:06:43
(UTC+00:00)

Daily predictions for brighter satellites

Satellite Brightness Start Highest point End
(mag) Time Altitude Azimuth Time Altitude Azimuth Time Altitude Azimuth
Nadezhda 4 Rocket 4.3 16:26:43 10° N 16:33:04 78° W 16:39:22 10° S
Cosmos 1500 3.6 16:31:38 10° N 16:35:09 38° ENE 16:38:39 10° SSE
Cosmos 44 Rocket 3.9 16:31:29 10° NNW 16:36:00 34° NE 16:40:22 10° ESE
COSMOS 2406 3.3 16:34:26 10° SSW 16:40:12 85° WNW 16:45:57 10° NNE
Cosmos 1814 Rocket 4.5 16:36:26 10° S 16:41:18 41° ESE 16:46:08 10° NE
Cosmos 1570 Rocket 4.5 16:43:17 10° S 16:48:10 41° ESE 16:53:04 10° NE
Cosmos 1428 Rocket 4.4 16:42:11 10° N 16:48:21 74° E 16:54:31 10° SSE
Cosmos 1092 Rocket 4.1 16:47:05 10° N 16:53:29 90° W 16:59:48 10° S
CZ-4B R/B 4.0 16:49:01 10° ESE 16:53:29 28° ENE 16:57:55 10° N
CZ-2D R/B 4.0 16:52:14 10° SE 16:55:37 30° ENE 16:58:58 10° N
Meteor 2-21 4.4 16:50:58 10° N 16:57:04 76° E 17:03:06 10° SSE
USA 267 3.4 16:50:40 10° NE 16:57:12 68° SE 17:03:42 10° SW
ATLAS CENTAUR R/B 3.3 16:46:57 10° WSW 16:57:25 68° NW 17:01:31 11° NE
Cosmos 1939 Rocket 2.8 16:54:07 10° SSE 16:58:11 73° ENE 17:02:14 10° N
USA 306 3.7 16:56:50 10° NW 17:00:43 33° NNE 17:03:51 14° ENE
Cosmos 1151 Rocket 3.3 16:56:42 10° SSE 17:00:49 45° E 17:05:00 10° NNE
Cosmos 1633 Rocket 3.4 16:57:56 10° N 17:02:08 42° ENE 17:06:18 10° SSE
COSMO-SKYMED 1 3.9 16:59:10 11° NE 17:02:20 21° E 17:05:36 10° SE
Cosmos 1782 2.8 16:58:55 10° S 17:02:54 89° W 17:06:54 10° N
Cosmos 1666 2.9 17:00:18 10° N 17:03:54 45° ENE 17:07:28 10° SSE
Cosmos 2360 Rocket 3.5 17:01:37 10° N 17:05:35 19° NE 17:08:17 14° ENE
ISS -2.2 17:03:10 10° WNW 17:06:22 39° SW 17:09:33 10° SSE
Cosmos 1900 4.4 17:02:46 10° SSW 17:07:32 59° ESE 17:11:52 13° NE
PAYLOAD B 4.4 17:02:51 10° SE 17:08:15 51° ENE 17:13:39 10° N
SeaSat 1 4.5 17:05:14 10° N 17:08:55 22° NW 17:12:36 10° W
SL-08 R/B 4.3 17:05:22 10° N 17:09:52 47° WNW 17:14:17 10° SW
Cosmos 1818 3.6 17:06:15 10° NNW 17:11:42 63° NE 17:17:06 10° SE
CZ-2C R/B 3.6 17:12:45 10° SSW 17:15:35 17° S 17:18:22 10° SE
Cosmos 2279 Rocket 4.0 17:10:42 10° S 17:16:50 65° E 17:22:58 10° NNE
Cosmos 2142 Rocket 4.4 17:11:39 10° S 17:17:45 70° E 17:23:58 10° NNE
ATLAS 5 CENTAUR R/B 2.9 17:10:59 10° NW 17:17:55 34° NNE 17:19:39 21° ENE
Cosmos 841 Rocket 4.0 17:12:56 10° SW 17:18:01 59° WNW 17:23:07 10° NNE
ERBS 4.5 17:18:55 10° NNW 17:20:13 12° N 17:20:46 11° NNE
Cosmos 2266 Rocket 4.4 17:15:11 10° N 17:21:13 41° ENE 17:27:13 10° SE
USA 307 3.6 17:17:24 10° NW 17:21:23 37° NNE 17:23:33 22° ENE
CZ-4C R/B 3.1 17:15:27 10° NW 17:22:45 83° SW 17:31:17 10° SSE
Lacrosse 5 rocket 1.1 17:20:52 10° NW 17:24:48 76° NE 17:28:57 10° SE
Cosmos 2208 Rocket 4.0 17:22:01 10° SSW 17:27:24 73° ESE 17:32:51 10° NNE
ATLAS 2AS CENTAUR R/B 4.3 17:22:29 10° NW 17:27:45 20° N 17:31:18 14° NE
Cosmos 2322 Rocket 2.7 17:23:30 10° NNW 17:28:50 38° NE 17:34:06 10° ESE
Cosmos 1933 Rocket 4.2 17:25:20 10° N 17:29:12 30° ENE 17:33:01 10° SE
AQUARIUS 4.4 17:25:03 10° S 17:29:31 71° WSW 17:34:01 10° NNW
USA 234 3.2 17:24:12 10° ESE 17:30:43 74° NNE 17:37:15 10° NW
Cosmos 2150 Rocket 4.1 17:25:43 10° NNW 17:30:49 53° ENE 17:35:56 10° SE
Cosmos 1328 Rocket 3.5 17:26:27 10° S 17:30:51 68° E 17:35:16 10° NNE
Cosmos 1666 Rocket 3.7 17:27:16 10° NNW 17:31:44 78° W 17:36:05 10° S
Cosmos 1980 Rocket 3.2 17:26:36 10° NW 17:32:03 50° WSW 17:37:26 10° S
Cosmos 1470 Rocket 3.6 17:30:56 10° N 17:35:21 56° ENE 17:39:45 10° SSE
Cosmos 1544 3.4 17:31:59 10° N 17:35:25 39° ENE 17:38:51 10° SSE
Cosmos 1867 4.3 17:31:36 10° S 17:36:26 33° ESE 17:38:28 25° ENE
Cosmos 1812 3.2 17:32:55 10° SSW 17:36:43 61° W 17:40:33 10° N
Cosmos 1125 Rocket 3.5 17:31:52 10° NNW 17:37:04 56° ENE 17:42:13 10° SE
X-37B 1.6 17:34:45 10° SW 17:37:19 29° SSE 17:37:49 27° SE
PSLV R/B 3.8 17:33:56 10° S 17:37:37 77° WSW 17:41:24 10° NNW
H-2A R/B 1.9 17:33:14 10° SSE 17:38:21 82° ENE 17:43:23 10° NNW
DEBRIS 4.3 17:36:22 10° S 17:38:31 20° ESE 17:38:35 20° ESE
Okean O Rocket 1.8 17:35:56 10° SE 17:40:12 47° ENE 17:44:29 10° N
Meteor 2-8 Rocket 4.4 17:34:37 10° S 17:40:45 75° E 17:46:56 10° NNE
Meteor 1-10 Rocket 4.3 17:35:17 10° S 17:40:55 58° E 17:46:27 10° NNE
Meteor 1-11 Rocket 3.9 17:36:57 10° N 17:42:29 51° ENE 17:48:04 10° SSE
USA 32 4.5 17:38:19 10° SSE 17:43:05 37° E 17:46:22 18° NNE
USA 308 3.3 17:40:04 10° NW 17:44:11 45° NNE 17:45:21 36° ENE
SL-16 R/B 2.1 17:43:54 10° NNW 17:49:34 68° ENE 17:55:13 10° SE
ARGOS 3.1 17:44:54 10° SSE 17:50:14 65° ENE 17:55:36 10° N
SKYMED 2 3.5 17:47:47 20° NNE 17:50:40 63° ESE 17:54:58 10° S
Cosmos 2082 Rocket 3.3 17:46:01 10° SW 17:51:22 42° NW 17:56:45 10° NNE
deb Chang Zheng 4 3.4 17:51:26 10° SSE 17:55:45 79° ENE 18:00:04 10° NNW
COSMOS 2455 4.1 17:54:26 10° WSW 17:59:55 35° NW 18:04:53 12° NNE
Feng Yun 1-1 Rocket 4.4 17:59:22 10° SSE 18:05:09 58° ENE 18:10:52 10° N
USA 305 2.8 18:04:22 10° NW 18:08:36 66° NNE 18:08:52 64° NE
Cosmos 2333 Rocket 3.3 18:04:20 10° N 18:08:04 26° NNE 18:08:04 26° NNE
Cosmos 1356 Rocket 3.3 18:05:48 10° N 18:10:03 87° E 18:14:19 10° S
CZ-2C R/B 2.5 18:06:50 11° NNE 18:11:49 83° WNW 18:16:59 10° SSW
Cosmos 2219 Rocket 3.7 18:12:22 10° N 18:15:05 21° NNE 18:15:05 21° NNE
Aureole 3 Rocket 3.4 18:12:42 10° S 18:17:12 70° E 18:23:36 10° NNE
Cosmos 1655 Rocket 4.2 18:11:35 10° N 18:17:59 77° W 18:24:18 10° S
Cosmos 1515 Rocket 3.7 18:13:35 10° SSW 18:18:00 71° W 18:20:27 26° N
Cosmos 921 Rocket 3.9 18:16:36 10° SW 18:20:39 45° WNW 18:22:47 25° N
Spot 2 4.4 18:23:28 47° SE 18:24:52 68° ENE 18:29:55 10° N
CZ-4B R/B 4.1 18:28:39 10° S 18:33:49 46° W 18:38:57 10° NNW
COSMO-SKYMED 1 3.7 18:36:23 23° NNW 18:38:39 41° WNW 18:42:44 10° SW
USA 267 3.8 18:37:47 36° NNE 18:40:05 50° NNW 18:46:20 10° W
USA 306 3.6 18:36:39 10° WNW 18:39:52 50° WNW 18:39:52 50° WNW
Landsat 5 4.1 18:41:36 51° W 18:41:36 51° W 18:45:08 10° SSW
Meteor 1-27 Rocket 3.8 18:38:28 10° SSW 18:43:57 70° WNW 18:46:30 33° N
Cosmos 2360 Rocket 2.1 18:44:41 10° NNW 18:50:08 82° NNW 18:50:08 82° NNW
CZ-2C R/B 3.7 18:51:29 10° SW 18:53:23 16° SSW 18:53:23 16° SSW
Lacrosse 5 rocket 3.9 19:00:50 10° W 19:03:31 17° SW 19:04:38 16° SW
Cosmos 2322 Rocket 3.5 19:07:37 10° NW 19:12:52 38° WSW 19:17:09 15° SSW
USA 234 4.4 19:10:00 19° S 19:14:02 37° SW 19:20:03 10° WNW
Okean O Rocket 4.2 19:13:37 10° SW 19:16:47 19° W 19:19:58 10° NW
NOSS 3-4 (A) 4.2 19:11:14 10° NW 19:16:19 49° N 19:16:19 49° N
NOSS 3-4 (C) 4.3 19:11:21 10° NW 19:16:24 49° N 19:16:24 49° N
ATLAS 2AS CENTAUR R/B 4.0 19:14:22 10° NNW 19:18:44 29° N 19:18:44 29° N
Cosmos 2333 Rocket 4.3 19:48:17 10° NW 19:50:07 21° NW 19:50:07 21° NW
